Rifle, CO

12:58 PM MDT on September 30, 2016 (GMT -0600)
Garfield County Regional

Weather History for KRIL - June, 2014

Change the Weather History Date:

Wednesday, June 25, 2014

  Actual Average Record
Temperature  
Mean Temperature 71 °F 69 °F  
Max Temperature 92 °F 88 °F 100 °F (2012)
Min Temperature 50 °F 50 °F 36 °F (1976)
Degree Days  
Heating Degree Days 0 0  
Month to date heating degree days 40 57  
Since 1 June heating degree days 40 57  
Since 1 July heating degree days 6796 6623  
Cooling Degree Days 6 5  
Month to date cooling degree days 53 68  
Year to date cooling degree days 67 75  
Since 1 June cooling degree days 53 68  
Growing Degree Days 20 (Base 50)    
Moisture  
Dew Point 29 °F    
Average Humidity 32    
Maximum Humidity 56    
Minimum Humidity 7    
Precipitation  
Precipitation 0.00 in 0.02 in 0.58 in (1983)
Month to date precipitation 0.11 0.94  
Year to date precipitation 4.60 6.36  
Sea Level Pressure  
Sea Level Pressure 29.80 in    
Wind  
Wind Speed 6 mph (SSW)    
Max Wind Speed 25 mph    
Max Gust Speed 31 mph    
Visibility 10 miles    
Events      
T = Trace of Precipitation, MM = Missing Value Source: NWS Daily Summary

Daily Weather History Graph

Daily Weather History Graph

Search for Another Location

Airport or City:

Trip Planner

Search our weather history database for the weather conditions in past years. The results will help you decide how hot, cold, wet, or windy it might be!

Date:

Astronomy

Jun. 25, 2014 Rise Set
Actual Time 5:44 AM MDT 8:42 PM MDT
Civil Twilight 5:12 AM MDT 9:14 PM MDT
Nautical Twilight 4:31 AM MDT 9:55 PM MDT
Astronomical Twilight 3:43 AM MDT 10:43 PM MDT
Moon 4:38 AM MDT (6/25) 7:17 PM MDT (6/25)
Length of Visible Light 16h 02m
Length of Day
14h 57m
Waning Crescent, 2% of the Moon is Illuminated
Jun 25
Waning Crescent
Jun 27
New
Jul 5
First Quarter
Jul 12
Full
Jul 18
Last Quarter

Hourly Weather History & Observations

Time (MDT) Temp. Dew Point Humidity Pressure Visibility Wind Dir Wind Speed Gust Speed Precip Events Conditions
12:53 AM 57.0 °F 36.0 °F 45% 29.84 in 10.0 mi East 6.9 mph - N/A   Clear
1:53 AM 57.9 °F 35.1 °F 42% 29.83 in 10.0 mi East 3.5 mph - N/A   Clear
2:53 AM 54.0 °F 34.0 °F 47% 29.83 in 10.0 mi Variable 3.5 mph - N/A   Clear
3:53 AM 52.0 °F 34.0 °F 50% 29.86 in 10.0 mi ESE 3.5 mph - N/A   Clear
4:53 AM 51.1 °F 34.0 °F 52% 29.87 in 10.0 mi East 5.8 mph - N/A   Clear
5:53 AM 50.0 °F 35.1 °F 57% 29.88 in 10.0 mi South 3.5 mph - N/A   Clear
6:53 AM 53.1 °F 35.1 °F 50% 29.89 in 10.0 mi Calm Calm - N/A   Clear
7:53 AM 57.9 °F 39.0 °F 49% 29.89 in 10.0 mi Variable 3.5 mph - N/A   Clear
8:53 AM 64.9 °F 37.9 °F 37% 29.88 in 10.0 mi Calm Calm - N/A   Clear
9:53 AM 71.1 °F 37.0 °F 29% 29.87 in 10.0 mi Calm Calm - N/A   Clear
10:53 AM 75.9 °F 37.0 °F 24% 29.85 in 10.0 mi East 3.5 mph - N/A   Clear
11:53 AM 82.9 °F 28.0 °F 14% 29.81 in 10.0 mi North 6.9 mph - N/A   Clear
12:53 PM 86.0 °F 24.1 °F 10% 29.80 in 10.0 mi West 4.6 mph - N/A   Clear
2:53 PM 91.0 °F 18.0 °F 7% 29.75 in 10.0 mi WNW 15.0 mph - N/A   Clear
3:53 PM 91.9 °F 18.0 °F 7% 29.73 in 10.0 mi WNW 12.7 mph - N/A   Clear
4:53 PM 91.0 °F 18.0 °F 7% 29.72 in 10.0 mi West 15.0 mph 23.0 mph N/A   Clear
5:53 PM 91.0 °F 18.0 °F 7% 29.70 in 10.0 mi West 17.3 mph 26.5 mph N/A   Clear
7:53 PM 86.0 °F 21.9 °F 10% 29.68 in 10.0 mi West 10.4 mph - N/A   Clear
8:53 PM 79.0 °F 23.0 °F 13% 29.69 in 10.0 mi SSW 3.5 mph - N/A   Clear
9:53 PM 72.0 °F 27.0 °F 19% 29.73 in 10.0 mi SE 4.6 mph - N/A   Clear
11:53 PM 63.0 °F 28.9 °F 28% 29.74 in 10.0 mi Calm Calm - N/A   Clear